Overview Statistics Trail Chart Weather Telemetry Raw packets
 

This is the latest recevied weather packets stored in our database for station/object N7ZEF. If no packets are shown the sender has not sent any weather packets the latest 10 day(s).

<< 4 5 6 7 8 9 10 >>
Time Temp. Humidity Pressure Rain* Wind** Luminosity Snow
1778086829 1.11° C 70% 1022.1 hPa 0 mm - - -
1778086228 1.11° C 73% 1022 hPa 1.02 mm - - -
1778085626 0.56° C 77% 1021.8 hPa 1.02 mm - - -
1778085025 0° C 78% 1021.7 hPa 1.02 mm - - -
1778084424 -0.56° C 82% 1021.6 hPa 1.02 mm - - -
1778083822 -0.56° C 78% 1021.5 hPa 1.02 mm - - -
1778083221 0° C 78% 1021.6 hPa 1.02 mm - - -
1778082619 0° C 82% 1021.6 hPa 1.52 mm - - -
1778082018 0° C 87% 1021.3 hPa 1.52 mm - - -
1778081417 0° C 88% 1021.3 hPa 1.52 mm - - -
1778080815 0° C 89% 1021.2 hPa 1.52 mm - - -
1778080214 -0.56° C 90% 1021.2 hPa 1.52 mm - - -
1778079612 0° C 93% 1021.2 hPa 1.52 mm - - -
1778079011 0° C 94% 1021.2 hPa 0.51 mm - - -
1778078410 0° C 97% 1021.1 hPa 0.51 mm - - -
1778077808 -0.56° C 98% 1021.1 hPa 0.51 mm - - -
1778077207 -1.11° C 98% 1021.2 hPa 0.51 mm - - -
1778076606 -1.11° C 98% 1021.1 hPa 0.51 mm - - -
1778076004 -0.56° C 99% 1021.1 hPa 0.51 mm - - -
1778075403 -1.11° C 99% 1021 hPa 0 mm - - -
1778074801 -1.67° C 100% 1020.8 hPa 0 mm - - -
1778074200 -1.67° C 100% 1020.7 hPa 0 mm - - -
1778073599 -1.11° C 100% 1020.6 hPa 0 mm - - -
1778072997 -1.67° C 100% 1020.6 hPa 0 mm - - -
1778072396 -2.22° C 100% 1020.3 hPa 0 mm - - -

* Rain latest hour (hover to see other rain measurements)
** Current wind speed in m/s (hover to see current wind gust speed)